Time,TemperatureF,DewpointF,PressureIn,WindDirection,WindDirectionDegrees,WindSpeedMPH,WindSpeedGustMPH,Humidity,HourlyPrecipIn,Conditions,Clouds,dailyrainin,SoftwareType,DateUTC
2013-10-27 00:02:00,-999.0,-99.9,29.94,NNW,330,0.0,7.0,-999,-99.99,,,-99.99,,2013-10-27 04:02:00,
2013-10-27 00:13:00,38.0,32.0,29.94,NNW,330,0.0,7.0,80,0.00,,,0.00,,2013-10-27 04:13:00,
2013-10-27 00:24:00,38.0,32.0,29.94,NNW,330,0.0,7.0,80,0.00,,,0.00,,2013-10-27 04:24:00,
2013-10-27 00:54:00,38.0,34.0,29.95,North,357,2.0,8.0,84,0.00,,,0.00,,2013-10-27 04:54:00,
2013-10-27 01:23:00,39.0,33.0,29.95,North,2,5.0,12.0,79,0.00,,,0.01,,2013-10-27 05:23:00,
2013-10-27 01:52:00,38.0,33.0,29.95,SW,216,2.0,8.0,82,0.00,,,0.01,,2013-10-27 05:52:00,
2013-10-27 02:22:00,38.0,34.0,29.94,SW,217,0.0,4.0,85,0.00,,,0.01,,2013-10-27 06:22:00,
2013-10-27 02:42:00,37.0,33.0,29.94,NE,38,3.0,12.0,85,0.00,,,0.01,,2013-10-27 06:42:00,
2013-10-27 02:53:00,36.0,33.0,29.95,North,7,3.0,12.0,87,0.00,,,0.01,,2013-10-27 06:53:00,
2013-10-27 03:12:00,36.0,33.0,29.95,North,0,2.0,7.0,88,0.00,,,0.01,,2013-10-27 07:12:00,
2013-10-27 03:22:00,35.0,32.0,29.94,North,0,1.0,7.0,90,0.00,,,0.01,,2013-10-27 07:22:00,
2013-10-27 03:42:00,35.0,33.0,29.94,North,0,2.0,3.0,91,0.00,,,0.01,,2013-10-27 07:42:00,
2013-10-27 03:52:00,35.0,33.0,29.94,SSW,207,0.0,4.0,91,0.00,,,0.01,,2013-10-27 07:52:00,
2013-10-27 04:03:00,35.0,33.0,29.94,SSW,207,0.0,4.0,91,0.00,,,0.01,,2013-10-27 08:03:00,
2013-10-27 04:22:00,34.0,32.0,29.95,NE,34,3.0,4.0,92,0.00,,,0.01,,2013-10-27 08:22:00,
2013-10-27 04:42:00,34.0,32.0,29.94,NE,34,1.0,3.0,93,0.00,,,0.01,,2013-10-27 08:42:00,
2013-10-27 04:52:00,34.0,32.0,29.93,SE,138,3.0,4.0,93,0.00,,,0.01,,2013-10-27 08:52:00,
2013-10-27 05:21:00,35.0,33.0,29.93,SSE,148,3.0,6.0,94,0.00,,,0.01,,2013-10-27 09:21:00,
2013-10-27 05:54:00,34.0,32.0,29.93,SSE,168,3.0,6.0,94,0.00,,,0.01,,2013-10-27 09:54:00,
2013-10-27 06:12:00,34.0,32.0,29.93,SE,140,2.0,6.0,94,0.00,,,0.01,,2013-10-27 10:12:00,
2013-10-27 06:23:00,35.0,34.0,29.93,ESE,121,4.0,6.0,95,0.00,,,0.01,,2013-10-27 10:23:00,
2013-10-27 06:53:00,35.0,33.0,29.93,South,179,4.0,7.0,94,0.00,,,0.01,,2013-10-27 10:53:00,
2013-10-27 07:12:00,35.0,34.0,29.93,South,179,3.0,5.0,95,0.00,,,0.01,,2013-10-27 11:12:00,
2013-10-27 07:22:00,35.0,34.0,29.94,South,179,2.0,5.0,95,0.00,,,0.01,,2013-10-27 11:22:00,
2013-10-27 07:52:00,35.0,34.0,29.93,South,174,1.0,6.0,95,0.00,,,0.01,,2013-10-27 11:52:00,
2013-10-27 08:22:00,35.0,34.0,29.93,South,174,1.0,3.0,95,0.00,,,0.01,,2013-10-27 12:22:00,
2013-10-27 08:32:00,35.0,34.0,29.93,South,174,1.0,3.0,95,0.00,,,0.01,,2013-10-27 12:32:00,
2013-10-27 08:42:00,35.0,34.0,29.93,South,174,1.0,3.0,95,0.00,,,0.01,,2013-10-27 12:42:00,
2013-10-27 08:52:00,36.0,35.0,29.94,South,174,2.0,3.0,95,0.00,,,0.01,,2013-10-27 12:52:00,
2013-10-27 09:12:00,36.0,35.0,29.95,South,174,3.0,5.0,95,0.00,,,0.01,,2013-10-27 13:12:00,
2013-10-27 09:22:00,36.0,35.0,29.94,South,174,2.0,5.0,95,0.00,,,0.01,,2013-10-27 13:22:00,
2013-10-27 09:42:00,36.0,35.0,29.94,South,174,1.0,3.0,95,0.00,,,0.01,,2013-10-27 13:42:00,
2013-10-27 09:52:00,36.0,35.0,29.94,South,174,2.0,3.0,95,0.00,,,0.01,,2013-10-27 13:52:00,
2013-10-27 10:22:00,36.0,35.0,29.94,South,175,3.0,6.0,95,0.00,,,0.01,,2013-10-27 14:22:00,
2013-10-27 10:52:00,37.0,35.0,29.94,South,178,4.0,6.0,94,0.00,,,0.01,,2013-10-27 14:52:00,
2013-10-27 11:22:00,38.0,36.0,29.94,South,173,3.0,5.0,94,0.00,,,0.01,,2013-10-27 15:22:00,
2013-10-27 11:44:00,39.0,37.0,29.94,South,173,2.0,4.0,94,0.00,,,0.01,,2013-10-27 15:44:00,
2013-10-27 11:54:00,40.0,38.0,29.94,South,177,3.0,4.0,93,0.00,,,0.01,,2013-10-27 15:54:00,
2013-10-27 12:24:00,41.0,39.0,29.93,South,179,3.0,5.0,91,0.00,,,0.01,,2013-10-27 16:24:00,
2013-10-27 12:43:00,41.0,37.0,29.93,South,187,3.0,6.0,87,0.00,,,0.01,,2013-10-27 16:43:00,
2013-10-27 12:53:00,42.0,36.0,29.93,SSW,211,4.0,8.0,78,0.00,,,0.01,,2013-10-27 16:53:00,
2013-10-27 13:22:00,43.0,36.0,29.92,SW,231,2.0,8.0,77,0.00,,,0.01,,2013-10-27 17:22:00,
2013-10-27 13:43:00,43.0,36.0,29.91,SSW,196,2.0,11.0,76,0.00,,,0.01,,2013-10-27 17:43:00,
2013-10-27 13:53:00,43.0,36.0,29.90,SSE,163,3.0,11.0,77,0.00,,,0.01,,2013-10-27 17:53:00,
2013-10-27 14:12:00,43.0,36.0,29.90,SW,228,2.0,11.0,76,0.00,,,0.01,,2013-10-27 18:12:00,
2013-10-27 14:22:00,43.0,36.0,29.90,SW,228,2.0,11.0,76,0.00,,,0.01,,2013-10-27 18:22:00,
2013-10-27 14:43:00,44.0,37.0,29.88,SSW,198,5.0,8.0,75,0.00,,,0.01,,2013-10-27 18:43:00,
2013-10-27 14:53:00,45.0,36.0,29.87,WNW,302,3.0,10.0,71,0.00,,,0.01,,2013-10-27 18:53:00,
2013-10-27 15:02:00,45.0,36.0,29.87,WNW,302,3.0,10.0,71,0.00,,,0.01,,2013-10-27 19:02:00,
2013-10-27 15:22:00,46.0,36.0,29.87,West,274,2.0,15.0,67,0.00,,,0.00,,2013-10-27 19:22:00,
2013-10-27 15:42:00,46.0,35.0,29.86,West,268,8.0,18.0,64,0.00,,,0.00,,2013-10-27 19:42:00,
2013-10-27 15:52:00,46.0,34.0,29.86,SW,229,7.0,18.0,63,0.00,,,0.00,,2013-10-27 19:52:00,
2013-10-27 16:12:00,46.0,34.0,29.86,SW,217,3.0,11.0,63,0.00,,,0.00,,2013-10-27 20:12:00,
2013-10-27 16:22:00,46.0,35.0,29.86,WSW,242,8.0,14.0,64,0.00,,,0.00,,2013-10-27 20:22:00,
2013-10-27 16:52:00,46.0,34.0,29.85,South,185,5.0,17.0,62,0.00,,,0.00,,2013-10-27 20:52:00,
2013-10-27 17:11:00,46.0,33.0,29.86,SSW,207,3.0,14.0,61,0.00,,,0.00,,2013-10-27 21:11:00,
2013-10-27 17:22:00,46.0,34.0,29.86,SSW,206,3.0,14.0,62,0.00,,,0.00,,2013-10-27 21:22:00,
2013-10-27 17:43:00,46.0,34.0,29.86,WNW,290,0.0,9.0,63,0.00,,,0.00,,2013-10-27 21:43:00,
2013-10-27 17:54:00,46.0,34.0,29.86,South,180,4.0,13.0,63,0.00,,,0.00,,2013-10-27 21:54:00,
2013-10-27 18:24:00,46.0,35.0,29.86,West,261,6.0,10.0,64,0.00,,,0.00,,2013-10-27 22:24:00,
2013-10-27 18:43:00,46.0,35.0,29.87,SW,224,3.0,13.0,65,0.00,,,0.00,,2013-10-27 22:43:00,
2013-10-27 18:54:00,46.0,35.0,29.87,SW,221,2.0,13.0,66,0.00,,,0.00,,2013-10-27 22:54:00,
2013-10-27 19:12:00,46.0,35.0,29.88,West,281,3.0,13.0,66,0.00,,,0.00,,2013-10-27 23:12:00,
2013-10-27 19:22:00,46.0,35.0,29.88,WSW,250,3.0,13.0,66,0.00,,,0.00,,2013-10-27 23:22:00,
2013-10-27 19:42:00,45.0,35.0,29.89,SW,233,5.0,9.0,68,0.00,,,0.00,,2013-10-27 23:42:00,
2013-10-27 19:52:00,46.0,36.0,29.90,WSW,239,6.0,14.0,69,0.00,,,0.00,,2013-10-27 23:52:00,
2013-10-27 20:11:00,46.0,36.0,29.90,NE,38,1.0,12.0,69,0.00,,,0.00,,2013-10-28 00:11:00,
2013-10-27 20:22:00,46.0,36.0,29.90,West,259,4.0,12.0,69,0.00,,,0.00,,2013-10-28 00:22:00,
2013-10-27 20:43:00,46.0,37.0,29.91,SW,236,7.0,10.0,71,0.00,,,0.00,,2013-10-28 00:43:00,
2013-10-27 20:52:00,46.0,37.0,29.92,WSW,242,1.0,10.0,71,0.00,,,0.00,,2013-10-28 00:52:00,
2013-10-27 21:12:00,46.0,37.0,29.92,WSW,249,2.0,6.0,71,0.00,,,0.00,,2013-10-28 01:12:00,
2013-10-27 21:21:00,45.0,37.0,29.92,WSW,248,3.0,6.0,72,0.00,,,0.00,,2013-10-28 01:21:00,
2013-10-27 21:52:00,45.0,37.0,29.93,SSW,203,3.0,3.0,72,0.00,,,0.00,,2013-10-28 01:52:00,
2013-10-27 22:12:00,45.0,37.0,29.93,SSW,206,2.0,5.0,72,0.00,,,0.00,,2013-10-28 02:12:00,
2013-10-27 22:22:00,45.0,37.0,29.93,SSW,206,1.0,5.0,73,0.00,,,0.00,,2013-10-28 02:22:00,
2013-10-27 22:42:00,45.0,37.0,29.93,SSW,206,1.0,3.0,73,0.00,,,0.00,,2013-10-28 02:42:00,
2013-10-27 22:53:00,45.0,37.0,29.94,SSW,206,1.0,3.0,74,0.00,,,0.00,,2013-10-28 02:53:00,
2013-10-27 23:22:00,45.0,38.0,29.95,SSW,206,1.0,2.0,75,0.00,,,0.00,,2013-10-28 03:22:00,
2013-10-27 23:44:00,44.0,37.0,29.96,SSW,206,0.0,2.0,77,0.00,,,0.00,,2013-10-28 03:44:00,
2013-10-27 23:54:00,44.0,37.0,29.96,SSW,206,1.0,2.0,77,0.00,,,0.00,,2013-10-28 03:54:00,